When you browse on this site, cookies collect data to enhance your experience and personalize the content and advertising you see.
Visit our Privacy Policy to learn more. By continuing to use the site, you agree to this use of cookies and data.
  • In Spain
  • List of Countries
  • For 7 days
  • Water Temperature
  • Weather Map
  • Weather Widgets
  • user-avatar
    Login

    Hourly Weather Maun

    Today, 18 February, Tuesday

    Time Temperature Precipitation Wind Pressure Humidity
    00:00 +24°C° 1.5 mm 1 mps 679 mmHg 88%
    01:00 +23°C° 1.5 mm 1 mps 679 mmHg 89%
    02:00 +23°C° 0 mm 1 mps 680 mmHg 89%
    03:00 +23°C° 0.2 mm 1 mps 680 mmHg 90%
    04:00 +23°C° 0.2 mm 1 mps 680 mmHg 91%
    05:00 +22°C° 0.2 mm 1 mps 680 mmHg 91%
    06:00 +23°C° 0.1 mm 1 mps 680 mmHg 88%
    07:00 +22°C° 0.1 mm 0 mps 681 mmHg 85%
    08:00 +23°C° 0.1 mm 0 mps 682 mmHg 81%
    09:00 +27°C° 0.2 mm 1 mps 682 mmHg 72%
    10:00 +29°C° 0.2 mm 1 mps 682 mmHg 63%
    11:00 +31°C° 0.2 mm 2 mps 682 mmHg 54%
    12:00 +32°C° 0 mm 2 mps 682 mmHg 50%
    13:00 +34°C° 0 mm 2 mps 681 mmHg 47%
    14:00 +35°C° 0 mm 2 mps 681 mmHg 43%
    15:00 +34°C° 0 mm 2 mps 680 mmHg 45%
    16:00 +32°C° 0 mm 1 mps 680 mmHg 48%
    17:00 +32°C° 0 mm 1 mps 679 mmHg 51%
    18:00 +31°C° 0.1 mm 1 mps 679 mmHg 54%
    19:00 +29°C° 0.1 mm 1 mps 679 mmHg 58%
    20:00 +28°C° 0.1 mm 2 mps 679 mmHg 61%
    21:00 +27°C° 0 mm 2 mps 680 mmHg 65%
    22:00 +26°C° 0 mm 2 mps 680 mmHg 69%
    23:00 +26°C° 0 mm 3 mps 680 mmHg 73%

    Tomorrow, 19 February, Wednesday

    Time Temperature Precipitation Wind Pressure Humidity
    00:00 +25°C° 0.2 mm 2 mps 680 mmHg 78%
    01:00 +24°C° 0.2 mm 2 mps 680 mmHg 82%
    02:00 +24°C° 0.2 mm 2 mps 680 mmHg 87%
    03:00 +23°C° 0 mm 2 mps 680 mmHg 88%
    04:00 +23°C° 0 mm 2 mps 680 mmHg 90%
    05:00 +23°C° 0 mm 2 mps 679 mmHg 91%
    06:00 +22°C° 0 mm 3 mps 680 mmHg 86%
    07:00 +23°C° 0 mm 4 mps 681 mmHg 81%
    08:00 +25°C° 0 mm 5 mps 681 mmHg 76%
    09:00 +27°C° 0 mm 5 mps 682 mmHg 65%
    10:00 +30°C° 0 mm 5 mps 682 mmHg 55%
    11:00 +33°C° 0 mm 5 mps 683 mmHg 45%
    12:00 +34°C° 0 mm 5 mps 682 mmHg 42%
    13:00 +35°C° 0 mm 4 mps 681 mmHg 40%
    14:00 +36°C° 0 mm 4 mps 681 mmHg 37%
    15:00 +35°C° 0 mm 4 mps 680 mmHg 40%
    16:00 +34°C° 0 mm 3 mps 680 mmHg 42%
    17:00 +33°C° 0 mm 3 mps 679 mmHg 45%
    18:00 +31°C° 0 mm 3 mps 679 mmHg 49%
    19:00 +30°C° 0 mm 3 mps 679 mmHg 54%
    20:00 +28°C° 0 mm 3 mps 679 mmHg 58%
    21:00 +27°C° 0.1 mm 3 mps 680 mmHg 63%
    22:00 +26°C° 0.1 mm 3 mps 680 mmHg 68%
    23:00 +25°C° 0.1 mm 3 mps 680 mmHg 73%

    Day after tomorrow, 20 February, Thursday

    Time Temperature Precipitation Wind Pressure Humidity
    00:00 +25°C° 0 mm 2 mps 680 mmHg 75%
    01:00 +24°C° 0 mm 2 mps 679 mmHg 77%
    02:00 +23°C° 0 mm 2 mps 679 mmHg 80%
    03:00 +23°C° 0 mm 2 mps 679 mmHg 81%
    04:00 +23°C° 0 mm 2 mps 679 mmHg 82%
    05:00 +21°C° 0 mm 2 mps 679 mmHg 84%
    06:00 +23°C° 0 mm 2 mps 680 mmHg 80%
    07:00 +24°C° 0 mm 3 mps 680 mmHg 76%
    08:00 +25°C° 0 mm 3 mps 681 mmHg 72%
    09:00 +27°C° 0 mm 4 mps 681 mmHg 62%
    10:00 +30°C° 0 mm 4 mps 681 mmHg 52%
    11:00 +33°C° 0 mm 4 mps 682 mmHg 42%
    12:00 +34°C° 0 mm 4 mps 681 mmHg 39%
    13:00 +35°C° 0 mm 4 mps 681 mmHg 36%
    14:00 +36°C° 0 mm 3 mps 680 mmHg 32%
    15:00 +35°C° 0 mm 3 mps 679 mmHg 35%
    16:00 +34°C° 0 mm 3 mps 679 mmHg 38%
    17:00 +34°C° 0 mm 2 mps 678 mmHg 41%
    18:00 +31°C° 0.1 mm 2 mps 678 mmHg 46%
    19:00 +30°C° 0.1 mm 2 mps 678 mmHg 51%
    20:00 +28°C° 0.1 mm 2 mps 678 mmHg 56%
    21:00 +27°C° 0.1 mm 2 mps 678 mmHg 62%
    22:00 +26°C° 0.1 mm 2 mps 679 mmHg 68%
    23:00 +25°C° 0.1 mm 3 mps 679 mmHg 74%

    21 February, Friday

    Time Temperature Precipitation Wind Pressure Humidity
    00:00 +25°C° 0 mm 2 mps 679 mmHg 77%
    01:00 +24°C° 0 mm 2 mps 679 mmHg 80%
    02:00 +23°C° 0 mm 2 mps 679 mmHg 84%
    03:00 +23°C° 0 mm 2 mps 678 mmHg 86%
    04:00 +23°C° 0 mm 2 mps 678 mmHg 88%
    05:00 +23°C° 0 mm 2 mps 678 mmHg 90%
    06:00 +23°C° 0 mm 2 mps 679 mmHg 86%
    07:00 +24°C° 0 mm 2 mps 680 mmHg 82%
    08:00 +25°C° 0 mm 2 mps 680 mmHg 79%
    15:00 +35°C° 0 mm 3 mps 679 mmHg 37%
    16:00 +35°C° 0 mm 2 mps 679 mmHg 38%
    17:00 +35°C° 0 mm 2 mps 679 mmHg 39%
    18:00 +32°C° 0 mm 2 mps 679 mmHg 44%
    19:00 +31°C° 0 mm 2 mps 679 mmHg 48%
    20:00 +29°C° 0 mm 1 mps 679 mmHg 53%
    21:00 +28°C° 0 mm 1 mps 679 mmHg 57%
    22:00 +27°C° 0 mm 2 mps 679 mmHg 61%
    23:00 +26°C° 0 mm 2 mps 679 mmHg 66%

    22 February, Saturday

    Time Temperature Precipitation Wind Pressure Humidity
    00:00 +25°C° 0.1 mm 2 mps 679 mmHg 70%
    01:00 +25°C° 0.1 mm 2 mps 678 mmHg 75%
    02:00 +24°C° 0.1 mm 2 mps 678 mmHg 79%
    03:00 +24°C° 0 mm 1 mps 678 mmHg 81%
    04:00 +24°C° 0 mm 1 mps 678 mmHg 82%
    05:00 +21°C° 0 mm 0 mps 678 mmHg 83%
    06:00 +24°C° 0 mm 1 mps 679 mmHg 79%
    07:00 +25°C° 0 mm 1 mps 680 mmHg 76%
    08:00 +26°C° 0 mm 1 mps 680 mmHg 72%
    09:00 +29°C° 0.1 mm 1 mps 681 mmHg 62%
    10:00 +32°C° 0.1 mm 1 mps 681 mmHg 52%
    11:00 +34°C° 0.1 mm 1 mps 682 mmHg 42%
    12:00 +35°C° 0 mm 1 mps 681 mmHg 39%
    13:00 +36°C° 0 mm 2 mps 680 mmHg 35%
    14:00 +37°C° 0 mm 2 mps 679 mmHg 32%
    15:00 +35°C° 0.1 mm 2 mps 679 mmHg 37%
    16:00 +34°C° 0.1 mm 2 mps 678 mmHg 42%
    17:00 +31°C° 0.1 mm 3 mps 677 mmHg 47%
    18:00 +30°C° 0.3 mm 2 mps 678 mmHg 53%
    19:00 +28°C° 0.3 mm 2 mps 678 mmHg 59%
    20:00 +27°C° 0.3 mm 2 mps 678 mmHg 65%
    21:00 +26°C° 0.1 mm 2 mps 678 mmHg 68%
    22:00 +26°C° 0.1 mm 2 mps 678 mmHg 71%
    23:00 +25°C° 0.1 mm 2 mps 679 mmHg 74%

    23 February, Sunday

    Time Temperature Precipitation Wind Pressure Humidity
    00:00 +25°C° 0 mm 2 mps 678 mmHg 76%
    01:00 +24°C° 0 mm 1 mps 678 mmHg 78%
    02:00 +24°C° 0 mm 1 mps 678 mmHg 80%
    03:00 +24°C° 0.1 mm 1 mps 677 mmHg 81%
    04:00 +23°C° 0.1 mm 1 mps 677 mmHg 82%
    05:00 +23°C° 0.1 mm 1 mps 677 mmHg 83%
    06:00 +24°C° 0.1 mm 1 mps 678 mmHg 80%
    07:00 +25°C° 0.1 mm 1 mps 678 mmHg 78%
    08:00 +26°C° 0.1 mm 1 mps 679 mmHg 76%
    09:00 +28°C° 0 mm 1 mps 679 mmHg 68%
    10:00 +30°C° 0 mm 1 mps 680 mmHg 59%
    11:00 +32°C° 0 mm 1 mps 680 mmHg 51%
    12:00 +34°C° 0 mm 1 mps 680 mmHg 44%
    13:00 +36°C° 0 mm 1 mps 679 mmHg 38%
    14:00 +39°C° 0 mm 1 mps 679 mmHg 32%
    15:00 +37°C° 0 mm 1 mps 678 mmHg 33%
    16:00 +37°C° 0 mm 2 mps 678 mmHg 35%
    17:00 +36°C° 0 mm 2 mps 677 mmHg 36%
    18:00 +32°C° 0.7 mm 2 mps 677 mmHg 50%
    19:00 +29°C° 0.7 mm 3 mps 677 mmHg 63%
    20:00 +25°C° 0.7 mm 3 mps 677 mmHg 77%
    21:00 +25°C° 1.5 mm 3 mps 678 mmHg 80%
    22:00 +24°C° 1.5 mm 2 mps 678 mmHg 83%
    23:00 +24°C° 1.5 mm 1 mps 679 mmHg 87%
    Show more